User: anonymous   Login
Location: Podia
(1.5569°N, 32.3469°E)
Time: 02:05:10
(UTC+00:00)
Language:

Hubble Space Telescope - Orbit

View from above orbital plane
View from above orbital plane
View from above satellite
View from above satellite

Ground track
Ground track

The orbit data is extracted from the following two-line orbital elements,

1 20580U 90037B   21167.20170705  .00000519  00000-0  20420-4 0  9990
2 20580  28.4704  73.3603 0002790  53.0882  79.5053 15.09659824510855
Epoch (UTC): 16 June 2021 04:50:27
Eccentricity: 0.0002790
inclination: 28.4704°
perigee height: 535 km
apogee height: 539 km
right ascension of ascending node: 73.3603°
argument of perigee: 53.0882°
revolutions per day: 15.09659824
mean anomaly at epoch: 79.5053°
orbit number at epoch: 51085

The dashed part of the orbit path shows where the satellite is in the earth's shadow,  

DLR